• In Netherlands
  • List of Countries
  • For 7 days
  • Water Temperature
  • Satellite Maps
  • Weather Map
  • Weather Widgets
  • user-avatar
    Login

    Hourly Weather Ropotamo

    Today, 25 February, Saturday

    Time Temperature Precipitation Wind Pressure Humidity
    00:00 +11°C° 0 mm 9 mps 757 mmHg 85%
    01:00 +11°C° 0 mm 9 mps 757 mmHg 86%
    02:00 +11°C° 0 mm 9 mps 756 mmHg 86%
    03:00 +11°C° 0 mm 9 mps 756 mmHg 86%
    04:00 +11°C° 0 mm 10 mps 756 mmHg 86%
    05:00 +11°C° 0 mm 10 mps 756 mmHg 85%
    06:00 +11°C° 0 mm 10 mps 756 mmHg 85%
    07:00 +11°C° 0 mm 10 mps 757 mmHg 84%
    08:00 +11°C° 0 mm 10 mps 757 mmHg 84%
    09:00 +12°C° 0 mm 9 mps 758 mmHg 81%
    10:00 +13°C° 0 mm 9 mps 758 mmHg 79%
    11:00 +13°C° 0 mm 9 mps 759 mmHg 77%
    12:00 +13°C° 1.1 mm 8 mps 759 mmHg 80%
    13:00 +12°C° 1.1 mm 7 mps 759 mmHg 82%
    14:00 +11°C° 1.1 mm 6 mps 760 mmHg 85%
    15:00 +12°C° 1 mm 5 mps 760 mmHg 85%
    16:00 +10°C° 1 mm 5 mps 761 mmHg 86%
    17:00 +10°C° 1 mm 4 mps 762 mmHg 86%
    18:00 +8°C° 0.6 mm 4 mps 762 mmHg 87%
    19:00 +7°C° 0.6 mm 4 mps 763 mmHg 88%
    20:00 +7°C° 0.6 mm 4 mps 764 mmHg 89%
    21:00 +6°C° 0.3 mm 4 mps 764 mmHg 90%
    22:00 +6°C° 0.3 mm 4 mps 765 mmHg 91%
    23:00 +7°C° 0.3 mm 3 mps 766 mmHg 92%

    Tomorrow, 26 February, Sunday

    Time Temperature Precipitation Wind Pressure Humidity
    00:00 +5°C° 0.1 mm 3 mps 766 mmHg 92%
    01:00 +5°C° 0.1 mm 3 mps 766 mmHg 92%
    02:00 +5°C° 0.1 mm 3 mps 767 mmHg 92%
    03:00 +5°C° 0 mm 3 mps 767 mmHg 92%
    04:00 +5°C° 0 mm 3 mps 767 mmHg 92%
    05:00 +5°C° 0 mm 3 mps 767 mmHg 92%
    06:00 +5°C° 0 mm 3 mps 767 mmHg 91%
    07:00 +5°C° 0 mm 4 mps 767 mmHg 91%
    08:00 +5°C° 0 mm 4 mps 767 mmHg 90%
    09:00 +6°C° 0 mm 4 mps 767 mmHg 85%
    10:00 +7°C° 0 mm 4 mps 766 mmHg 81%
    11:00 +8°C° 0 mm 4 mps 766 mmHg 76%
    12:00 +8°C° 0 mm 4 mps 766 mmHg 75%
    13:00 +10°C° 0 mm 4 mps 765 mmHg 74%
    14:00 +10°C° 0 mm 3 mps 765 mmHg 73%
    15:00 +10°C° 0 mm 3 mps 764 mmHg 75%
    16:00 +9°C° 0 mm 3 mps 764 mmHg 78%
    17:00 +9°C° 0 mm 3 mps 763 mmHg 80%
    18:00 +8°C° 0 mm 3 mps 763 mmHg 83%
    19:00 +7°C° 0 mm 3 mps 763 mmHg 87%
    20:00 +5°C° 0 mm 3 mps 763 mmHg 90%
    21:00 +6°C° 0 mm 2 mps 763 mmHg 91%
    22:00 +5°C° 0 mm 2 mps 763 mmHg 92%
    23:00 +6°C° 0 mm 1 mps 763 mmHg 92%

    Day after tomorrow, 27 February, Monday

    Time Temperature Precipitation Wind Pressure Humidity
    00:00 +6°C° 0 mm 1 mps 763 mmHg 93%
    01:00 +6°C° 0 mm 1 mps 762 mmHg 93%
    02:00 +6°C° 0 mm 1 mps 762 mmHg 93%
    03:00 +6°C° 0 mm 1 mps 762 mmHg 93%
    04:00 +6°C° 0 mm 1 mps 761 mmHg 94%
    05:00 +6°C° 0 mm 1 mps 761 mmHg 94%
    06:00 +6°C° 0 mm 1 mps 761 mmHg 94%
    07:00 +7°C° 0 mm 1 mps 761 mmHg 93%
    08:00 +8°C° 0 mm 1 mps 761 mmHg 93%
    09:00 +10°C° 0 mm 1 mps 761 mmHg 86%
    10:00 +11°C° 0 mm 1 mps 761 mmHg 80%
    11:00 +13°C° 0 mm 1 mps 761 mmHg 73%
    12:00 +14°C° 0 mm 1 mps 761 mmHg 71%
    13:00 +15°C° 0 mm 1 mps 760 mmHg 69%
    14:00 +15°C° 0 mm 1 mps 760 mmHg 67%
    15:00 +15°C° 0 mm 2 mps 760 mmHg 71%
    16:00 +14°C° 0 mm 2 mps 760 mmHg 75%
    17:00 +13°C° 0 mm 2 mps 760 mmHg 79%
    18:00 +12°C° 0 mm 2 mps 760 mmHg 82%
    19:00 +10°C° 0 mm 2 mps 760 mmHg 86%
    20:00 +9°C° 0 mm 2 mps 760 mmHg 89%
    21:00 +8°C° 0 mm 2 mps 760 mmHg 90%
    22:00 +8°C° 0 mm 2 mps 760 mmHg 91%
    23:00 +8°C° 0 mm 2 mps 760 mmHg 92%

    28 February, Tuesday

    Time Temperature Precipitation Wind Pressure Humidity
    00:00 +9°C° 0 mm 1 mps 760 mmHg 92%
    01:00 +8°C° 0 mm 1 mps 759 mmHg 92%
    02:00 +8°C° 0 mm 1 mps 759 mmHg 92%
    03:00 +8°C° 0 mm 1 mps 759 mmHg 92%
    04:00 +8°C° 0 mm 1 mps 759 mmHg 92%
    05:00 +8°C° 0 mm 1 mps 759 mmHg 92%
    06:00 +8°C° 0 mm 1 mps 759 mmHg 91%
    07:00 +9°C° 0 mm 1 mps 759 mmHg 90%
    08:00 +9°C° 0 mm 2 mps 759 mmHg 89%
    09:00 +10°C° 0 mm 2 mps 759 mmHg 82%
    10:00 +13°C° 0 mm 2 mps 759 mmHg 75%
    11:00 +15°C° 0 mm 2 mps 759 mmHg 68%
    12:00 +16°C° 0 mm 2 mps 758 mmHg 66%
    13:00 +16°C° 0 mm 2 mps 758 mmHg 64%
    14:00 +17°C° 0 mm 3 mps 757 mmHg 61%
    15:00 +16°C° 0 mm 3 mps 757 mmHg 66%
    16:00 +16°C° 0 mm 3 mps 757 mmHg 70%
    17:00 +14°C° 0 mm 3 mps 756 mmHg 74%
    18:00 +13°C° 0 mm 3 mps 757 mmHg 79%
    19:00 +11°C° 0 mm 3 mps 757 mmHg 83%
    20:00 +10°C° 0 mm 3 mps 757 mmHg 87%
    21:00 +10°C° 0 mm 3 mps 757 mmHg 88%
    22:00 +10°C° 0 mm 3 mps 756 mmHg 88%
    23:00 +9°C° 0 mm 3 mps 756 mmHg 89%

    1 March, Wednesday

    Time Temperature Precipitation Wind Pressure Humidity
    00:00 +8°C° 0 mm 4 mps 756 mmHg 88%
    01:00 +8°C° 0 mm 4 mps 756 mmHg 87%
    02:00 +8°C° 0 mm 4 mps 755 mmHg 87%
    03:00 +8°C° 0 mm 4 mps 755 mmHg 88%
    04:00 +8°C° 0 mm 4 mps 755 mmHg 89%
    05:00 +8°C° 0 mm 4 mps 754 mmHg 89%
    06:00 +8°C° 0 mm 4 mps 754 mmHg 89%
    07:00 +8°C° 0 mm 5 mps 754 mmHg 88%
    08:00 +9°C° 0 mm 5 mps 754 mmHg 88%
    09:00 +12°C° 0 mm 5 mps 754 mmHg 83%
    10:00 +13°C° 0 mm 6 mps 754 mmHg 78%
    11:00 +15°C° 0 mm 6 mps 754 mmHg 73%
    12:00 +16°C° 0 mm 6 mps 754 mmHg 70%
    13:00 +17°C° 0 mm 6 mps 753 mmHg 68%
    14:00 +17°C° 0 mm 6 mps 752 mmHg 65%
    15:00 +17°C° 0 mm 6 mps 752 mmHg 68%
    16:00 +16°C° 0 mm 5 mps 752 mmHg 71%
    17:00 +15°C° 0 mm 4 mps 752 mmHg 74%
    18:00 +14°C° 0.3 mm 6 mps 753 mmHg 74%
    19:00 +11°C° 0.3 mm 8 mps 754 mmHg 74%
    20:00 +8°C° 0.3 mm 10 mps 755 mmHg 75%
    21:00 +7°C° 0.1 mm 9 mps 756 mmHg 73%
    22:00 +7°C° 0.1 mm 9 mps 757 mmHg 72%
    23:00 +6°C° 0.1 mm 8 mps 757 mmHg 71%

    2 March, Thursday

    Time Temperature Precipitation Wind Pressure Humidity
    00:00 +5°C° 0.2 mm 8 mps 758 mmHg 73%
    01:00 +5°C° 0.2 mm 7 mps 759 mmHg 75%
    02:00 +5°C° 0.2 mm 7 mps 759 mmHg 77%
    03:00 +4°C° 0.1 mm 6 mps 760 mmHg 78%
    04:00 +5°C° 0.1 mm 5 mps 760 mmHg 79%
    05:00 +3°C° 0.1 mm 5 mps 761 mmHg 80%
    06:00 +4°C° 0 mm 4 mps 761 mmHg 78%
    07:00 +4°C° 0 mm 4 mps 761 mmHg 77%
    08:00 +5°C° 0 mm 3 mps 762 mmHg 76%
    09:00 +7°C° 0 mm 3 mps 762 mmHg 69%
    10:00 +9°C° 0 mm 3 mps 762 mmHg 62%
    11:00 +10°C° 0 mm 2 mps 762 mmHg 56%
    12:00 +12°C° 0 mm 2 mps 762 mmHg 53%
    13:00 +13°C° 0 mm 2 mps 761 mmHg 51%
    14:00 +14°C° 0 mm 1 mps 761 mmHg 48%
    15:00 +13°C° 0 mm 2 mps 761 mmHg 52%
    16:00 +13°C° 0 mm 2 mps 761 mmHg 56%
    17:00 +11°C° 0 mm 3 mps 761 mmHg 59%
    18:00 +10°C° 0 mm 3 mps 761 mmHg 62%
    19:00 +9°C° 0 mm 3 mps 762 mmHg 64%
    20:00 +8°C° 0 mm 3 mps 762 mmHg 67%
    21:00 +7°C° 0 mm 3 mps 762 mmHg 67%
    22:00 +7°C° 0 mm 3 mps 762 mmHg 67%
    23:00 +7°C° 0 mm 2 mps 762 mmHg 67%
    Show more